Other Public Products
Issued by NWS Charleston, SC

Current Version | Previous Version | Graphics & Text | Print | Product List | Glossary On
Versions: 1 2 3 4 5 6 7 8 9 10 11 12 13 14 15 16 17 18 19 20 21 22 23 24 25 26 27 28 29 30 31 32 33 34 35 36 37 38 39 40 41 42 43 44 45 46 47 48 49 50
000
FPUS82 KCHS 231928
OPUCHS

TEST...KCHS/KSAV Gateway Observations...TEST
National Weather Service Charleston SC
300 PM EDT SAT SEP 23 2017

NOTE: "fair" indicates few or no clouds below 12,000 feet with no
significant weather and/or obstructions to visibility.

SCZ050-WAZ558-NCZ071-TXZ119-213-PAZ071-DCZ001-FLZ074-172-MI076-
NYZ176-178-MAZ016-IL014-TNZ027-NJZ106-GAZ044-MD014-232000-

...Gateway Observations for Charleston International...

CITY           SKY/WX    TMP DP  RH WIND       PRES   REMARKS
Chas Airport   MOSUNNY   87  67  51 SE16      30.01S HX  90
Seattle        PTSUNNY   61  50  67 SW8       30.12R
Charlotte      MOSUNNY   89  64  43 N9        30.05F HX  90
Dallas DFW     PTSUNNY   90  67  46 S9G18     29.91F HX  93
Dallas Love    PTSUNNY   90  66  45 SE14      29.92F HX  92
Philladelphia  MOSUNNY   88  61  40 NE8G17    30.02F
Wash National  MOSUNNY   88  65  46 N9        30.06F HX  90
Baltimore      MOSUNNY   87  61  41 N9G24     30.04F
Miami          CLOUDY    91  74  57 NE5       29.81F HX 100
Detroit        MOSUNNY   90  64  42 SE8       30.14F HX  91
Newark         SUNNY     88  53  30 N12       30.00F
Laguardia      MOSUNNY   85  51  31 N14       30.00F
J F K          MOSUNNY   87  57  35 N14       30.01F
Boston Logan   MOSUNNY   69  60  73 E13       30.01S
Ft. Lauderdale CLOUDY    88  77  69 E13       29.81F HX 100
Chicago O`Hare MOSUNNY   92  61  35 SE6       30.06F HX  92
Chicago Midway MOSUNNY   93  63  36 SE3       30.06F HX  94
Houston Bush   MOSUNNY   89  70  53 SE13      29.91F HX  94
Houston Hobby  PTSUNNY   90  72  55 E12       29.90F HX  97
Nashville      PTSUNNY   91  65  41 VRB3      30.04F HX  93
Atlanta        MOSUNNY   85  63  47 E8        30.05F

$$

GAZ044-118-TXZ119-213-NCZ071-DCZ001-MDZ014-506-PAZ021-071-NJZ106-
NYZ176-178-MAZ106-OHZ011-021-055-MIZ076-KYZ091-ILZ014-INZ047-
MNZ060-ONZ431-232000-

...Gateway Observations for Savannah International...

CITY           SKY/WX    TMP DP  RH WIND       PRES   REMARKS
Savannah Arpt  PTSUNNY   86  69  56 NE10      30.00S HX  90
Atlanta        MOSUNNY   85  63  47 E8        30.05F
Charlotte      MOSUNNY   89  64  43 N9        30.05F HX  90
Dallas DFW     PTSUNNY   90  67  46 S9G18     29.91F HX  93
Houston Bush   MOSUNNY   89  70  53 SE13      29.91F HX  94
Wash National  MOSUNNY   88  65  46 N9        30.06F HX  90
Wash Dulles    MOSUNNY   85  61  44 N9        30.07F
Baltimore      MOSUNNY   87  61  41 N9G24     30.04F
Philadelphia   MOSUNNY   88  61  40 NE8G17    30.02F
Newark         SUNNY     88  53  30 N12       30.00F
Laguardia      MOSUNNY   85  51  31 N14       30.00F
J F K          MOSUNNY   87  57  35 N14       30.01F
Boston         MOSUNNY   69  60  73 E13       30.01S
Pittsburg      MOSUNNY   88  50  27 N5        30.13F
Akron          MOSUNNY   91  57  31 NE12      30.14F
Cleveland      SUNNY     90  51  26 N12       30.16F
Cincinnati     MOSUNNY   89  63  41 E7        30.10F HX  90
Columbus       SUNNY     88  57  34 E7        30.09F
Detroit        MOSUNNY   90  64  42 SE8       30.14F HX  91
Chicago O`Hare MOSUNNY   92  61  35 SE6       30.06F HX  92
Minneapolis    PTSUNNY   86  71  60 S9        29.95F HX  91
Indianapolis   MOSUNNY   90  63  40 VRB5      30.09F HX  91
Toronto Canada MOSUNNY   91  63  38 NW7       30.09F HX  92

$$




USA.gov is the U.S. government's official web portal to all federal, state and local government web resources and services.